Weather History for Chicopee, MA

Change the Weather History Date:

Saturday, December 8, 2012

  Actual Average Record
Temperature  
Mean Temperature 40 °F -  
Max Temperature 43 °F 38 °F 51 °F (2004)
Min Temperature 38 °F 23 °F 7 °F (2008)
Degree Days  
Heating Degree Days 25    
Moisture  
Dew Point 39 °F    
Average Humidity 99    
Maximum Humidity 100    
Minimum Humidity 93    
Precipitation  
Precipitation 0.22 in - - ()
Sea Level Pressure  
Sea Level Pressure 29.98 in    
Wind  
Wind Speed 1 mph (North)    
Max Wind Speed 7 mph    
Max Gust Speed -    
Visibility 2 miles    
Events Fog , Rain    
Averages and records for this station are not official NWS values.
T = Trace of Precipitation, MM = Missing Value Source: NWS Daily Summary

Daily Weather History Graph

Daily Weather History Graph

Search for Another Location

Airport:

Trip Planner

Search our weather history database for the weather conditions in past years. The results will help you decide how hot, cold, wet, or windy it might be!

Date:

Astronomy

Dec. 08, 2012 Rise Set
Actual Time 7:06 AM EST 4:17 PM EST
Civil Twilight 6:34 AM EST 4:49 PM EST
Nautical Twilight 5:59 AM EST 5:24 PM EST
Astronomical Twilight 5:25 AM EST 5:58 PM EST
Moon 1:23 AM EST (12/8) 12:50 PM EST (12/8)
Length of Visible Light 10h 14m
Length of Day
9h 11m
Waning Crescent, 28% of the Moon is Illuminated
Dec 8
Waning Crescent
Dec 13
New
Dec 20
First Quarter
Dec 28
Full
Jan 4
Last Quarter

Hourly Weather History & Observations

Time (EST) Temp. Windchill Dew Point Humidity Pressure Visibility Wind Dir Wind Speed Gust Speed Precip Events Conditions
12:09 AM 41.0 °F - 39.2 °F 93% 30.03 in 2.5 mi Calm Calm - N/A Rain Light Rain
12:14 AM 39.2 °F - 39.2 °F 100% 30.04 in 2.0 mi Calm Calm - N/A Rain Light Rain
12:15 AM 39.2 °F - 39.2 °F 100% 30.04 in 2.0 mi Calm Calm - N/A Rain Light Rain
12:16 AM 39.2 °F 37.0 °F 39.2 °F 100% 30.04 in 2.0 mi WNW 3.5 mph - N/A   Overcast
12:22 AM 39.2 °F - 39.2 °F 100% 30.03 in 1.8 mi Calm Calm - N/A   Overcast
12:24 AM 39.2 °F - 39.2 °F 100% 30.03 in 1.5 mi Calm Calm - N/A   Overcast
12:31 AM 39.2 °F - 39.2 °F 100% 30.03 in 1.8 mi Calm Calm - N/A   Overcast
12:33 AM 39.2 °F - 39.2 °F 100% 30.03 in 2.0 mi Calm Calm - N/A   Overcast
12:35 AM 39.2 °F - 39.2 °F 100% 30.03 in 2.0 mi Calm Calm - N/A Rain Light Rain
12:40 AM 39.2 °F - 39.2 °F 100% 30.03 in 2.0 mi Calm Calm - N/A Rain Light Rain
12:41 AM 39.2 °F - 39.2 °F 100% 30.03 in 2.5 mi Calm Calm - N/A Rain Light Rain
12:47 AM 39.2 °F - 39.2 °F 100% 30.02 in 2.5 mi Calm Calm - N/A   Overcast
12:55 AM 38.8 °F - 38.3 °F 98% 30.02 in 2.5 mi Calm Calm - 0.01 in   Overcast
1:02 AM 39.2 °F - 37.4 °F 93% 30.02 in 2.0 mi Calm Calm - N/A   Overcast
1:13 AM 39.2 °F - 37.4 °F 93% 30.02 in 2.5 mi Calm Calm - N/A   Overcast
1:24 AM 39.2 °F - 37.4 °F 93% 30.02 in 2.0 mi Calm Calm - N/A   Overcast
1:31 AM 39.2 °F - 37.4 °F 93% 30.02 in 2.0 mi Calm Calm - N/A   Overcast
1:43 AM 39.2 °F - 37.4 °F 93% 30.02 in 2.0 mi Calm Calm - N/A   Overcast
1:52 AM 39.2 °F - 37.4 °F 93% 30.02 in 2.5 mi Calm Calm - N/A   Overcast
1:55 AM 38.8 °F - 38.3 °F 98% 30.02 in 2.5 mi Calm Calm - N/A   Overcast
2:14 AM 39.2 °F - 39.2 °F 100% 30.02 in 2.0 mi Calm Calm - N/A   Overcast
2:29 AM 39.2 °F - 37.4 °F 93% 30.02 in 2.0 mi Calm Calm - N/A   Overcast
2:43 AM 39.2 °F - 39.2 °F 100% 30.02 in 2.0 mi Calm Calm - N/A   Overcast
2:55 AM 38.8 °F - 38.3 °F 98% 30.01 in 2.0 mi Calm Calm - 0.01 in   Overcast
2:56 AM 39.2 °F - 39.2 °F 100% 30.01 in 1.8 mi Calm Calm - N/A Rain Light Rain
3:00 AM 39.2 °F - 39.2 °F 100% 30.01 in 1.5 mi Calm Calm - N/A Rain Light Rain
3:05 AM 39.2 °F - 39.2 °F 100% 30.01 in 1.5 mi Calm Calm - N/A Rain Light Rain
3:06 AM 39.2 °F - 39.2 °F 100% 30.01 in 1.2 mi Calm Calm - N/A Rain Light Rain
3:09 AM 39.2 °F - 39.2 °F 100% 30.01 in 1.2 mi Calm Calm - N/A   Mostly Cloudy
3:13 AM 39.2 °F - 39.2 °F 100% 30.00 in 1.0 mi Calm Calm - N/A   Mist
3:17 AM 39.2 °F - 39.2 °F 100% 30.00 in 1.0 mi Calm Calm - N/A   Mist
3:19 AM 39.2 °F - 39.2 °F 100% 30.00 in 1.0 mi Calm Calm - N/A Rain Light Rain
3:20 AM 39.2 °F - 39.2 °F 100% 30.00 in 0.8 mi Calm Calm - N/A Rain Light Rain
3:22 AM 39.2 °F - 39.2 °F 100% 30.00 in 0.8 mi Calm Calm - N/A Rain Light Rain
3:23 AM 39.2 °F - 39.2 °F 100% 30.00 in 0.8 mi Calm Calm - N/A Rain Light Rain
3:24 AM 39.2 °F - 39.2 °F 100% 30.00 in 1.0 mi Calm Calm - N/A Rain Light Rain
3:26 AM 39.2 °F - 39.2 °F 100% 30.00 in 1.0 mi Calm Calm - N/A Rain Light Rain
3:32 AM 39.2 °F - 39.2 °F 100% 30.00 in 1.2 mi Calm Calm - N/A Rain Light Rain
3:34 AM 39.2 °F - 39.2 °F 100% 30.00 in 1.2 mi Calm Calm - N/A Rain Light Rain
3:45 AM 39.2 °F - 39.2 °F 100% 30.00 in 1.2 mi Calm Calm - N/A Rain Light Rain
3:55 AM 39.0 °F 36.8 °F 38.5 °F 98% 30.01 in 1.0 mi WNW 3.5 mph - 0.02 in Rain Light Rain
3:56 AM 39.2 °F 37.0 °F 39.2 °F 100% 30.00 in 1.0 mi WNW 3.5 mph - N/A Rain Light Rain
3:59 AM 39.2 °F 37.0 °F 39.2 °F 100% 30.00 in 1.0 mi NW 3.5 mph - N/A Rain Light Rain
4:07 AM 39.2 °F - 39.2 °F 100% 29.99 in 1.0 mi Calm Calm - N/A Rain Light Rain
4:10 AM 39.2 °F - 39.2 °F 100% 29.99 in 0.8 mi Calm Calm - N/A Rain Light Rain
4:14 AM 39.2 °F 37.0 °F 39.2 °F 100% 29.99 in 0.8 mi NE 3.5 mph - N/A   Mist
4:18 AM 39.2 °F 37.0 °F 37.4 °F 93% 29.99 in 1.0 mi NE 3.5 mph - N/A   Mist
4:22 AM 39.2 °F - 37.4 °F 93% 29.99 in 1.0 mi Calm Calm - N/A   Mist
4:23 AM 39.2 °F - 37.4 °F 93% 29.99 in 1.0 mi Calm Calm - N/A Rain Light Rain
4:25 AM 39.2 °F - 37.4 °F 93% 29.99 in 1.0 mi Calm Calm - N/A Rain Light Rain
4:26 AM 39.2 °F - 37.4 °F 93% 29.99 in 1.0 mi Calm Calm - N/A Rain Light Rain
4:27 AM 39.2 °F - 37.4 °F 93% 29.99 in 1.2 mi Calm Calm - N/A Rain Light Rain
4:29 AM 39.2 °F - 39.2 °F 100% 29.99 in 1.2 mi Calm Calm - N/A Rain Light Rain
4:32 AM 39.2 °F - 39.2 °F 100% 29.99 in 1.2 mi Calm Calm - N/A Rain Light Rain
4:33 AM 39.2 °F - 39.2 °F 100% 29.99 in 1.2 mi Calm Calm - N/A Rain Light Rain
4:36 AM 39.2 °F - 39.2 °F 100% 29.99 in 1.2 mi Calm Calm - N/A Rain Light Rain
4:44 AM 39.2 °F - 39.2 °F 100% 29.99 in 1.5 mi Calm Calm - N/A Rain Light Rain
4:47 AM 39.2 °F - 39.2 °F 100% 29.98 in 1.5 mi Calm Calm - N/A Rain Light Rain
4:55 AM 39.0 °F - 38.5 °F 98% 29.98 in 1.5 mi Calm Calm - 0.06 in Rain Light Rain
4:59 AM 39.2 °F - 39.2 °F 100% 29.98 in 1.5 mi Calm Calm - N/A Rain Light Rain
5:09 AM 39.2 °F 37.0 °F 39.2 °F 100% 29.97 in 1.5 mi NE 3.5 mph - N/A Rain Light Rain
5:13 AM 39.2 °F - 39.2 °F 100% 29.97 in 1.8 mi Calm Calm - N/A Rain Light Rain
5:15 AM 39.2 °F - 39.2 °F 100% 29.97 in 1.8 mi Calm Calm - N/A Rain Light Rain
5:20 AM 39.2 °F 37.0 °F 39.2 °F 100% 29.97 in 1.8 mi North 3.5 mph - N/A Rain Light Rain
5:22 AM 39.2 °F 37.0 °F 39.2 °F 100% 29.97 in 2.0 mi North 3.5 mph - N/A Rain Light Rain
5:32 AM 39.2 °F - 39.2 °F 100% 29.97 in 2.0 mi Calm Calm - N/A   Scattered Clouds
5:37 AM 39.2 °F - 39.2 °F 100% 29.97 in 2.0 mi Calm Calm - N/A   Mostly Cloudy
5:43 AM 39.2 °F 37.0 °F 39.2 °F 100% 29.97 in 2.5 mi NW 3.5 mph - N/A   Mostly Cloudy
5:44 AM 39.2 °F 37.0 °F 39.2 °F 100% 29.97 in 2.5 mi NW 3.5 mph - N/A Rain Light Rain
5:55 AM 39.2 °F 35.9 °F 38.8 °F 99% 29.97 in 3.0 mi NNW 4.6 mph - 0.03 in Rain Light Rain
6:00 AM 39.2 °F 37.0 °F 39.2 °F 100% 29.97 in 4.0 mi NNE 3.5 mph - N/A Rain Light Rain
6:11 AM 39.2 °F 37.0 °F 39.2 °F 100% 29.97 in 3.0 mi North 3.5 mph - N/A   Overcast
6:22 AM 39.2 °F - 39.2 °F 100% 29.97 in 4.0 mi Calm Calm - N/A   Overcast
6:25 AM 39.2 °F 37.0 °F 39.2 °F 100% 29.97 in 4.0 mi NNW 3.5 mph - N/A   Overcast
6:27 AM 39.2 °F 37.0 °F 39.2 °F 100% 29.97 in 4.0 mi NNW 3.5 mph - N/A Rain Light Rain
6:33 AM 39.2 °F 37.0 °F 39.2 °F 100% 29.97 in 4.0 mi North 3.5 mph - N/A Rain Light Rain
6:38 AM 39.2 °F - 39.2 °F 100% 29.97 in 4.0 mi Calm Calm - N/A Rain Light Rain
6:41 AM 39.2 °F - 39.2 °F 100% 29.97 in 3.0 mi Calm Calm - N/A Rain Light Rain
6:46 AM 39.2 °F - 39.2 °F 100% 29.97 in 2.5 mi Calm Calm - N/A Rain Light Rain
6:51 AM 39.2 °F - 39.2 °F 100% 29.97 in 2.0 mi Calm Calm - N/A Rain Light Rain
6:53 AM 39.2 °F - 39.2 °F 100% 29.97 in 2.0 mi Calm Calm - N/A   Light Drizzle
6:55 AM 38.8 °F - 38.3 °F 98% 29.97 in 2.0 mi Calm Calm - 0.03 in   Light Drizzle
6:58 AM 39.2 °F 37.0 °F 39.2 °F 100% 29.96 in 1.8 mi NNE 3.5 mph - N/A   Light Drizzle
7:00 AM 39.2 °F 37.0 °F 39.2 °F 100% 29.96 in 2.0 mi NNE 3.5 mph - N/A   Light Drizzle
7:01 AM 39.2 °F 37.0 °F 39.2 °F 100% 29.96 in 2.0 mi NNE 3.5 mph - N/A   Light Drizzle
7:04 AM 39.2 °F 37.0 °F 39.2 °F 100% 29.96 in 2.0 mi NNE 3.5 mph - N/A   Light Drizzle
7:07 AM 39.2 °F 35.9 °F 39.2 °F 100% 29.96 in 2.0 mi NNE 4.6 mph - N/A   Light Drizzle
7:09 AM 39.2 °F 37.0 °F 39.2 °F 100% 29.96 in 2.0 mi NNE 3.5 mph - N/A   Overcast
7:10 AM 39.2 °F 37.0 °F 39.2 °F 100% 29.96 in 2.0 mi NNE 3.5 mph - N/A   Overcast
7:12 AM 39.2 °F - 39.2 °F 100% 29.96 in 2.5 mi Calm Calm - N/A   Overcast
7:16 AM 39.2 °F 37.0 °F 39.2 °F 100% 29.96 in 3.0 mi North 3.5 mph - N/A   Mostly Cloudy
7:25 AM 39.2 °F 35.0 °F 39.2 °F 100% 29.95 in 6.0 mi North 5.8 mph - N/A   Mostly Cloudy
7:27 AM 39.2 °F 35.0 °F 39.2 °F 100% 29.95 in 6.0 mi North 5.8 mph - N/A   Mostly Cloudy
7:36 AM 39.2 °F 35.9 °F 39.2 °F 100% 29.95 in 3.0 mi North 4.6 mph - N/A   Overcast
7:55 AM 39.0 °F 36.8 °F 38.5 °F 98% 29.94 in 2.0 mi North 3.5 mph - 0.01 in   Overcast
8:07 AM 39.2 °F - 39.2 °F 100% 29.94 in 2.0 mi Calm Calm - N/A   Light Drizzle
8:19 AM 39.2 °F 35.9 °F 39.2 °F 100% 29.95 in 2.0 mi NW 4.6 mph - N/A Rain Light Rain
8:55 AM 38.5 °F 33.4 °F 37.9 °F 98% 29.95 in 1.5 mi North 6.9 mph - 0.03 in Rain Rain
9:21 AM 39.2 °F 35.0 °F 39.2 °F 100% 29.94 in 1.5 mi NNE 5.8 mph - N/A Rain Light Rain
9:55 AM 39.9 °F 35.8 °F 39.4 °F 98% 29.94 in 1.5 mi North 5.8 mph - 0.01 in Rain Light Rain
10:17 AM 39.2 °F 35.9 °F 39.2 °F 100% 29.94 in 1.5 mi North 4.6 mph - N/A   Light Drizzle
10:55 AM 40.5 °F 36.5 °F 39.9 °F 98% 29.93 in 1.5 mi NNW 5.8 mph - 0.00 in   Light Drizzle
11:34 AM 41.0 °F 37.1 °F 41.0 °F 100% 29.91 in 1.2 mi North 5.8 mph - N/A   Light Drizzle
11:55 AM 41.0 °F 38.0 °F 40.5 °F 98% 29.90 in 1.2 mi NNW 4.6 mph - N/A   Light Drizzle
12:55 PM 41.7 °F 38.8 °F 41.4 °F 99% 29.87 in 3.0 mi North 4.6 mph - N/A   Overcast
1:55 PM 42.3 °F 40.5 °F 41.7 °F 98% 29.87 in 3.0 mi NW 3.5 mph - N/A   Overcast
2:55 PM 42.8 °F 41.1 °F 41.0 °F 93% 29.88 in 3.0 mi WNW 3.5 mph - N/A   Overcast
3:55 PM 42.1 °F - 41.5 °F 98% 29.88 in 3.0 mi Calm Calm - N/A   Overcast
4:55 PM 42.8 °F - 41.0 °F 93% 29.89 in 5.0 mi Calm Calm - N/A   Overcast
5:51 PM 42.8 °F - 41.0 °F 93% 29.90 in 2.0 mi Calm Calm - N/A   Overcast
5:55 PM 42.8 °F - 41.0 °F 93% 29.90 in 1.5 mi Calm Calm - N/A   Overcast
6:14 PM 41.0 °F - 41.0 °F 100% 29.91 in 1.0 mi Calm Calm - N/A   Mist
6:55 PM 41.0 °F 39.0 °F 41.0 °F 100% 29.91 in 0.8 mi SSE 3.5 mph - N/A   Mist
7:47 PM 42.8 °F - 42.8 °F 100% 29.93 in 0.5 mi Calm Calm - N/A Fog Fog
7:55 PM 42.8 °F - 42.8 °F 100% 29.93 in 0.5 mi Calm Calm - N/A Fog Fog
8:55 PM 42.8 °F 41.1 °F 42.8 °F 100% 29.94 in 0.5 mi SSW 3.5 mph - N/A Fog Fog
9:07 PM 42.8 °F - 42.8 °F 100% 29.94 in 0.5 mi Calm Calm - N/A Fog Fog
9:16 PM 42.8 °F - 42.8 °F 100% 29.94 in 0.2 mi Calm Calm - N/A Fog Fog
9:55 PM 42.8 °F - 42.8 °F 100% 29.95 in 0.2 mi Calm Calm - N/A Fog Fog
10:55 PM 42.8 °F - 42.3 °F 98% 29.97 in 0.2 mi Calm Calm - N/A Fog Fog
11:19 PM 42.8 °F - 42.8 °F 100% 29.97 in 0.2 mi Calm Calm - N/A Fog Fog
11:38 PM 42.8 °F - 42.8 °F 100% 29.98 in 0.2 mi Calm Calm - N/A Fog Fog
11:55 PM 43.0 °F - 42.4 °F 98% 29.99 in 0.2 mi Calm Calm - 0.01 in Fog Fog